Weather History for Mexico City Airport, Mexico

Change the Weather History Date:

Sunday, March 20, 2011

  Actual Average Record
Temperature  
Mean Temperature 63 °F -  
Max Temperature 82 °F 77 °F 84 °F (1998)
Min Temperature 44 °F 49 °F 42 °F (2001)
Degree Days  
Heating Degree Days 2    
Growing Degree Days 13 (Base 50)    
Moisture  
Dew Point 25 °F    
Average Humidity 28    
Maximum Humidity 62    
Minimum Humidity 10    
Precipitation  
Precipitation 0.00 in - - ()
Sea Level Pressure  
Sea Level Pressure 30.25 in    
Wind  
Wind Speed 5 mph ()    
Max Wind Speed 24 mph    
Max Gust Speed 34 mph    
Visibility 8.9 miles    
Events      
Averages and records for this station are not official NWS values.
T = Trace of Precipitation, MM = Missing Value Source: Averaged Metar Reports

Daily Weather History Graph

Daily Weather History Graph

Search for Another Location

Airport:

Trip Planner

Search our weather history database for the weather conditions in past years. The results will help you decide how hot, cold, wet, or windy it might be!

Date:

Astronomy

Mar. 20, 2011 Rise Set
Actual Time 6:40 AM CST 6:47 PM CST
Civil Twilight 6:18 AM CST 7:09 PM CST
Nautical Twilight 5:53 AM CST 7:34 PM CST
Astronomical Twilight 5:27 AM CST 8:00 PM CST
Moon 8:04 PM CST (3/20) 7:04 AM CST (3/20)
Length of Visible Light 12h 50m
Length of Day
12h 06m
Full, 98% of the Moon is Illuminated
Mar 20
Full
Mar 26
Last Quarter
Apr 3
New
Apr 11
First Quarter
Apr 17
Full

Hourly Weather History & Observations

Time (CST) Temp. Windchill Dew Point Humidity Pressure Visibility Wind Dir Wind Speed Gust Speed Precip Events Conditions
12:53 AM 59.0 °F - 32.0 °F 36% 30.37 in 12.0 mi Calm Calm - N/A   Clear
1:47 AM 55.4 °F - 33.8 °F 44% 30.36 in 10.0 mi Calm Calm - N/A   Clear
2:51 AM 51.8 °F - 33.8 °F 50% 29.86 in 10.0 mi NNE 4.6 mph - N/A   Clear
3:49 AM 48.2 °F - 35.6 °F 62% 30.35 in 10.0 mi NE 4.6 mph - N/A   Clear
4:45 AM 46.4 °F 44.3 °F 33.8 °F 62% 30.35 in 10.0 mi ENE 4.6 mph - N/A   Clear
5:53 AM 46.4 °F 44.3 °F 30.2 °F 53% 29.93 in 8.0 mi NE 4.6 mph - N/A   Clear
6:23 AM 46.4 °F 43.5 °F 28.4 °F 50% 30.37 in 8.0 mi NE 5.8 mph - N/A   Clear
6:50 AM 44.6 °F 43.1 °F 30.2 °F 57% 30.37 in 7.0 mi NE 3.5 mph - N/A   Clear
7:21 AM 46.4 °F 44.3 °F 30.2 °F 53% 30.37 in 6.0 mi NE 4.6 mph - N/A   Clear
7:43 AM 50.0 °F - 26.6 °F 40% 30.38 in 6.0 mi NE 3.5 mph - N/A   Clear
7:45 AM 50.0 °F - 26.6 °F 40% 30.38 in 6.0 mi NE 4.6 mph - N/A   Clear
8:04 AM 53.6 °F - 26.6 °F 35% 30.39 in 7.0 mi ENE 3.5 mph - N/A   Clear
8:21 AM 55.4 °F - 26.6 °F 33% 30.39 in 7.0 mi ENE 4.6 mph - N/A   Clear
8:44 AM 57.2 °F - 28.4 °F 33% 29.93 in 7.0 mi NE 3.5 mph - N/A   Clear
9:16 AM 60.8 °F - 32.0 °F 34% 30.40 in 6.0 mi Calm Calm - N/A   Clear
9:20 AM 60.8 °F - 32.0 °F 34% 30.40 in 6.0 mi Calm Calm - N/A   Clear
9:43 AM 64.4 °F - 32.0 °F 30% 30.40 in 6.0 mi Calm Calm - N/A   Clear
9:45 AM 64.4 °F - 32.0 °F 30% 30.40 in 6.0 mi Calm Calm - N/A   Clear
10:28 AM 68.0 °F - 30.2 °F 24% 30.40 in 6.0 mi Calm Calm - N/A   Clear
10:45 AM 69.8 °F - 26.6 °F 20% 30.39 in 6.0 mi North 5.8 mph - N/A   Clear
11:19 AM 73.4 °F - 24.8 °F 16% 30.38 in 6.0 mi NNW 6.9 mph - N/A   Clear
11:46 AM 73.4 °F - 23.0 °F 15% 29.86 in 6.0 mi NNW 13.8 mph - N/A   Clear
12:14 PM 77.0 °F - 23.0 °F 13% 30.38 in 7.0 mi NW 5.8 mph - N/A   Clear
12:31 PM 78.8 °F - 21.2 °F 12% 30.33 in 7.0 mi North 12.7 mph 24.2 mph N/A   Clear
12:45 PM 78.8 °F - 21.2 °F 12% 30.33 in 7.0 mi North 11.5 mph 23.0 mph N/A   Clear
1:44 PM 80.6 °F - 21.2 °F 11% 30.29 in 8.0 mi NNW 17.3 mph 34.5 mph N/A   Clear
2:47 PM 82.4 °F - 21.2 °F 10% 29.73 in 8.0 mi NNE 17.3 mph 28.8 mph N/A   Clear
3:51 PM 80.6 °F - 19.4 °F 10% 30.25 in 9.0 mi NNE 18.4 mph 29.9 mph N/A   Clear
4:50 PM 78.8 °F - 19.4 °F 11% 30.25 in 10.0 mi NNE 23.0 mph - N/A   Clear
5:50 PM 75.2 °F - 19.4 °F 12% 29.83 in 12.0 mi NNE 23.0 mph - N/A   Clear
6:28 PM 71.6 °F - 19.4 °F 14% 30.27 in 12.0 mi North 24.2 mph - N/A   Clear
6:51 PM 69.8 °F - 17.6 °F 14% 30.29 in 12.0 mi NNE 17.3 mph - N/A   Clear
7:48 PM 68.0 °F - 19.4 °F 16% 30.31 in 13.0 mi North 16.1 mph - N/A   Clear
8:45 PM 66.2 °F - 17.6 °F 15% 29.87 in 13.0 mi North 9.2 mph - N/A   Clear
9:36 PM 62.6 °F - 15.8 °F 16% 30.37 in 15.0 mi NNE 5.8 mph - N/A   Clear
9:47 PM 62.6 °F - 15.8 °F 16% 30.37 in 15.0 mi North 4.6 mph - N/A   Clear
10:46 PM 62.6 °F - 14.0 °F 15% 30.38 in 15.0 mi NW 5.8 mph - N/A   Clear
11:46 PM 60.8 °F - 15.8 °F 17% 29.89 in 15.0 mi West 5.8 mph - N/A   Clear